Location: Coopersdale
(40.3556°N, 78.9372°W)
Time: 07:48:03
(UTC+00:00)

Tiros 1 - Pass Details

Date: 25 January 2021
Orbit: 630 x 664 km, 48.4° (Epoch: 05 March)

Event Time Altitude Azimuth Distance (km) Brightness Sun altitude
Rises 23:09:17 0° 250° (WSW) 2,930 13.0 -8.5°
Reaches altitude 10° 23:11:38 10° 254° (WSW) 2,018 11.4 -8.9°
Maximum altitude 23:16:14 61° 335° (NNW) 721 7.4 -9.8°
Enters shadow 23:20:21 13° 54° (NE) 1,837 8.9 -10.5°
